Location: Rumah Long Bangan
(2.8362°N, 113.7519°E)
Time: 06:18:11
(UTC+00:00)

Cosmos 389 Rocket - Pass Details

Date: 24 October 2021
Orbit: 439 x 468 km, 81.1° (Epoch: 28 November)

Event Time Altitude Azimuth Distance (km) Brightness Sun altitude
Exits shadow 21:14:08 13° 332° (NNW) 1,440 4.6 -14.0°
Maximum altitude 21:17:00 39° 265° (W) 715 2.9 -13.3°
Drops below altitude 10° 21:20:20 10° 195° (SSW) 1,626 5.2 -12.5°
Sets 21:22:31 0° 187° (S) 2,503 6.3 -12.0°
